KN4JGH Weather Reports


time (UTC)temp
C
wind
direction
speed
KPH
gust
KPH
rain 1hr
cm
rain 24hr
cm
rain mn
cm
humidity
%
barometer
mb
20260504110330 7 86 0.0 0.0 0.00 0.00 0.00 90 1014.5
20260504100329 7 86 0.0 0.0 0.00 0.00 0.00 89 1014.6
20260504081322 7 86 0.0 0.0 0.00 0.00 0.00 87 1014.8
20260504080318 7 86 0.0 0.0 0.00 0.00 0.00 87 1014.7
20260504070315 8 86 0.0 0.0 0.00 0.00 0.00 83 1015.0
20260504050330 9 202 0.0 0.0 0.00 0.00 0.00 79 1015.9
20260504045325 9 202 0.0 0.0 0.00 0.00 0.00 79 1016.0
20260504044340 9 202 0.0 0.0 0.00 0.00 0.00 78 1016.0
20260504043338 9 202 0.0 0.0 0.00 0.00 0.00 77 1016.1
20260504042332 10 202 0.0 0.0 0.00 0.00 0.00 77 1016.1
20260504041326 10 202 0.0 0.0 0.00 0.00 0.00 78 1016.1
20260504040326 10 29 0.0 0.0 0.00 0.00 0.00 75 1016.2
20260504035323 10 29 0.0 0.0 0.00 0.00 0.00 75 1016.2
20260504034317 10 29 0.0 0.0 0.00 0.00 0.00 75 1016.3
20260504033353 10 29 0.0 0.0 0.00 0.00 0.00 75 1016.2
20260504032332 10 29 0.0 0.0 0.00 0.00 0.00 74 1016.2
20260504031347 11 202 0.0 0.0 0.00 0.00 0.00 73 1016.2
20260504030322 11 29 0.0 0.0 0.00 0.00 0.00 73 1016.3
20260504025318 11 29 0.0 0.0 0.00 0.00 0.00 73 1016.4
20260504024316 11 29 0.0 0.0 0.00 0.00 0.00 72 1016.4
20260504023332 11 29 0.0 0.0 0.00 0.00 0.00 73 1016.3
20260504022347 11 29 0.0 0.0 0.00 0.00 0.00 71 1016.2
20260504021340 11 29 0.0 0.0 0.00 0.00 0.00 71 1016.1
20260504020319 11 29 0.0 0.0 0.00 0.00 0.00 71 1016.1
20260504015313 12 29 0.0 0.0 0.00 0.00 0.00 69 1015.9
20260504014328 12 29 0.0 0.0 0.00 0.00 0.00 68 1015.9
20260504013347 12 202 0.0 0.0 0.00 0.00 0.00 66 1015.7
20260504012321 12 29 0.0 0.0 0.00 0.00 0.00 65 1015.8
20260504011316 13 29 0.0 0.0 0.00 0.00 0.00 64 1015.9
20260504010331 13 29 0.0 0.0 0.00 0.00 0.00 61 1015.9
20260504005330 14 29 0.0 0.0 0.00 0.00 0.00 57 1015.8
20260504004325 15 29 0.0 0.0 0.00 0.00 0.00 55 1015.9
20260504003321 16 29 0.0 0.0 0.00 0.00 0.00 51 1015.8
20260504002322 17 29 0.0 4.8 0.00 0.00 0.00 47 1015.9
20260504001316 18 29 1.6 8.0 0.00 0.00 0.00 43 1015.9
20260504000332 18 29 3.2 9.7 0.00 0.00 0.00 40 1016.0
20260503235327 18 211 0.0 6.4 0.00 0.00 0.00 41 1016.2
20260503234326 18 277 0.0 8.0 0.00 0.00 0.00 40 1016.2
20260503233321 19 261 3.2 9.7 0.00 0.00 0.00 38 1016.2
20260503232317 20 306 1.6 14.5 0.00 0.00 0.00 38 1016.2
20260503231317 20 239 6.4 14.5 0.00 0.00 0.00 36 1015.9
20260503230313 20 275 3.2 14.5 0.00 0.00 0.00 37 1016.1
20260503225328 21 350 3.2 14.5 0.00 0.00 0.00 36 1016.3
20260503224326 21 269 6.4 12.9 0.00 0.00 0.00 35 1016.4
20260503223322 21 198 4.8 9.7 0.00 0.00 0.00 37 1016.5
20260503222320 21 269 3.2 17.7 0.00 0.00 0.00 36 1016.8
20260503221313 21 227 11.3 22.5 0.00 0.00 0.00 37 1016.9
20260503220313 21 251 6.4 17.7 0.00 0.00 0.00 35 1017.0
20260503215329 21 217 6.4 12.9 0.00 0.00 0.00 36 1017.0
20260503214323 22 245 4.8 16.1 0.00 0.00 0.00 35 1017.1
20260503213322 22 266 3.2 12.9 0.00 0.00 0.00 35 1017.3
20260503212315 21 281 3.2 19.3 0.00 0.00 0.00 35 1017.4
20260503211328 21 298 6.4 14.5 0.00 0.00 0.00 35 1017.6
20260503210324 21 311 3.2 16.1 0.00 0.00 0.00 35 1017.6
20260503205323 21 324 6.4 16.1 0.00 0.00 0.00 36 1017.8
20260503204317 21 296 6.4 16.1 0.00 0.00 0.00 37 1018.1
20260503203331 21 252 3.2 12.9 0.00 0.00 0.00 44 1018.2
20260503202332 21 202 1.6 11.3 0.00 0.00 0.00 45 1018.3
20260503201347 21 276 6.4 11.3 0.00 0.00 0.00 38 1018.5
20260503200321 20 245 3.2 14.5 0.00 0.00 0.00 36 1018.8
20260503195317 21 195 8.0 16.1 0.00 0.00 0.00 36 1019.0
20260503194316 20 202 4.8 14.5 0.00 0.00 0.00 36 1019.1
20260503193331 20 276 4.8 16.1 0.00 0.00 0.00 36 1019.4
20260503192348 20 259 6.4 12.9 0.00 0.00 0.00 38 1019.4
20260503191325 20 321 3.2 16.1 0.00 0.00 0.00 38 1019.6
20260503190321 19 242 6.4 11.3 0.00 0.00 0.00 41 1019.6
20260503185316 19 300 8.0 14.5 0.00 0.00 0.00 40 1019.9
20260503184331 18 238 3.2 12.9 0.00 0.00 0.00 40 1019.9
20260503183331 19 227 3.2 16.1 0.00 0.00 0.00 42 1020.1
20260503182327 18 267 4.8 12.9 0.00 0.00 0.00 42 1020.4
20260503181320 18 235 1.6 14.5 0.00 0.00 0.00 44 1020.3
20260503180321 18 221 6.4 16.1 0.00 0.00 0.00 39 1020.2
20260503175337 18 256 6.4 16.1 0.00 0.00 0.00 39 1020.4
20260503174331 18 296 4.8 16.1 0.00 0.00 0.00 41 1020.5
20260503173327 18 138 1.6 11.3 0.00 0.00 0.00 46 1020.6
20260503172327 17 251 1.6 11.3 0.00 0.00 0.00 44 1020.8
20260503171321 17 212 1.6 16.1 0.00 0.00 0.00 39 1021.1
20260503170316 17 177 1.6 9.7 0.00 0.00 0.00 41 1021.1
20260503150314 13 193 0.0 11.3 0.00 0.00 0.00 47 1022.1
20260503131353 10 167 0.0 1.6 0.00 0.00 0.00 81 1022.0
20260503130328 9 167 0.0 0.0 0.00 0.00 0.00 83 1022.0